« Back
NWS Peachtree City, Ga » Text Product » GA Regional Weather Roundup


Printer-friendly Version
Current Version              Previous Versions:   1  2  3  4  5  6  7  8  9  

Regional Weather Roundup

606
ASUS42 KFFC 042303
RWRGA
WEATHER ROUNDUP FOR GEORGIA
NATIONAL WEATHER SERVICE PEACHTREE CITY GA
700 PM EDT WED MAY 04 2016

NOTE: "FAIR" INDICATES FEW OR NO CLOUDS BELOW 12,000 FEET WITH NO
SIGNIFICANT WEATHER AND/OR OBSTRUCTIONS TO VISIBILITY.

* = USE WITH CAUTION. THE STATIONS MARKED WITH AN ASTERISK MAY NOT
REPORT WEATHER SUCH AS PRECIPITATION, FOG, OR THUNDER AND ARE NOT
QUALITY CONTROLLED BY NWS.

THE REMARK "TC" DENOTES TEMPERATURE READING IN DEGREES CELSIUS.

GAZ001>058-050000-
NORTH GEORGIA

CITY           SKY/WX    TMP DP  RH WIND       PRES   REMARKS
ATLANTA        MOSUNNY   69  42  37 W14       29.71S
ATHENS         SUNNY     69  42  37 W8        29.69S
CHAMBLEE       MOSUNNY   68  43  40 W10G21    29.70F
PEACHTREE CITY SUNNY     69  43  38 W9G16     29.73S
ROME           PTSUNNY   70  44  39 SW8       29.67F
WEST ATLANTA   SUNNY     69  42  37 W10       29.71S
GAINESVILLE    MOSUNNY   66  41  40 W12       29.71S
CARTERSVILLE   MOSUNNY   68  44  42 VRB5      29.70F


CITY           SKY/WX    TMP DP  RH WIND       PRES   REMARKS
DALTON*        CLOUDY    68  45  42 SW7       29.68F
LAWRENCEVILLE* MOSUNNY   68  43  40 W9G21     29.71R
KENNESAW*      MOSUNNY   68  41  37 W12G17    29.68F
CANTON*        MOSUNNY   66  34  30 W6        29.71F
BLAIRSVILLE*     N/A    N/A N/A N/A MISG      29.70S
$$

GAZ059>098-102>109-050000-
CENTRAL GEORGIA

CITY           SKY/WX    TMP DP  RH WIND       PRES   REMARKS
AUGUSTA-BUSH   MOSUNNY   73  44  35 NW10      29.66S
AUGUSTA-DANIEL SUNNY     73  43  33 W8        29.67F
COLUMBUS       SUNNY     71  42  35 W15       29.74S
MACON          SUNNY     72  44  36 NW16      29.70F
ROBINS AFB     SUNNY     72  45  36 NW15      29.70S


CITY           SKY/WX    TMP DP  RH WIND       PRES   REMARKS
LAGRANGE*      MOSUNNY   72  49  44 W14       29.74S
SYLVANIA*      SUNNY     76  49  38 NW10      29.67S
MILLEDGEVILLE* SUNNY     72  43  35 W8        29.69F
$$

GAZ099>101-110>166-050000-
SOUTH GEORGIA

CITY           SKY/WX    TMP DP  RH WIND       PRES   REMARKS
SAVANNAH       MOSUNNY   77  45  32 W10       29.65S
VALDOSTA       MOSUNNY   74  50  42 VRB7      29.70R
ALMA           MOSUNNY   75  47  36 NW12      29.68S
ST SIMONS      CLOUDY    74  64  71 MISG      29.65S
FT STEWART     MOSUNNY   77  46  34 W8        29.64S
ALBANY         SUNNY     75  45  34 NW10G20   29.74S
HUNTER AFB     SUNNY     77  51  40 NW12      29.62F
MOODY AFB      MOSUNNY   75  48  37 NW10      29.69R
BRUNSWICK      CLOUDY    82  54  36 W8        29.66S


CITY           SKY/WX    TMP DP  RH WIND       PRES   REMARKS
BAINBRIDGE*    MOSUNNY   77  50  38 NW14G20   29.74S
MOULTRIE*      SUNNY     75  46  35 NW10      29.72S
VIDALIA*       SUNNY     73  46  38 NW10      29.69S
WAYCROSS*      MOSUNNY   74  50  42 NW8       29.68R
DOUGLAS*       SUNNY     75  45  33 N9G16     29.70S
$$




USA.gov is the U.S. government's official web portal to all federal, state and local government web resources and services.